Regional Weather Roundup
Issued by NWS State College, PA

Home | Current Version | Previous Version | Text Only | Print | Product List | Glossary Off
Versions: 1 2 3 4 5 6 7 8 9 10 11 12 13 14 15 16 17 18 19 20 21 22 23 24 25 26 27 28 29 30 31 32 33 34 35 36 37 38 39 40 41 42 43 44 45 46 47 48 49 50

000
ASUS41 KCTP 251003
RWRCTP

REGIONAL WEATHER ROUNDUP
NATIONAL WEATHER SERVICE STATE COLLEGE PA
600 AM EDT SAT APR 25 2015

Note: "fair" indicates few or no clouds below 12,000 feet with no
significant weather and/or obstructions to visibility.

* = STATION THAT DOES NOT REPORT PRECIPITATION /E.G. RAIN...SNOW...ETC/
    THUNDER OR FOG.

PAZ002>004-007>009-013>016-020>023-029>032-251100-
WESTERN PENNSYLVANIA

CITY           SKY/WX    TMP DP  RH WIND       PRES   REMARKS
ERIE           CLOUDY    34  25  69 E3        29.98R
MEADVILLE      CLOUDY    33  22  63 W6        29.95R
FRANKLIN*      CLOUDY    30  18  59 SW6       29.96R
NEW CASTLE     FAIR      37  25  62 CALM      29.99S
BEAVER COUNTY  NOT AVBL
BUTLER*        CLOUDY    34  25  69 CALM      29.99R
PITTSBURGH INT LGT SNOW  37  29  72 N5        29.97R
PITTSBURGH     LGT SNOW  34  26  72 N5        29.96R
INDIANA*       CLOUDY    32  25  74 CALM      29.98S
LATROBE        CLOUDY    37  25  60 CALM      29.98S
WASHINGTON CO* CLOUDY    39  18  41 NE9       29.97F
$$

PAZ004>006-010>012-017>019-024>028-033>037-041-042-045-046-049>053-251100-
CENTRAL PENNSYLVANIA

CITY           SKY/WX    TMP DP  RH WIND       PRES   REMARKS
BRADFORD       CLOUDY    26  21  81 CALM      29.90F
DUBOIS         CLOUDY    31  21  66 CALM      29.90F
CLEARFIELD     CLOUDY    28  21  75 CALM      29.93F
JOHNSTOWN      CLOUDY    33  15  47 SW6       29.90F
ALTOONA        CLOUDY    34  19  54 CALM      29.93F
STATE COLLEGE  MOCLDY    32  19  59 CALM      29.93F
WILLIAMSPORT   PTCLDY    32  23  69 W8        29.96S
SELINSGROVE    PTCLDY    29  24  82 CALM      29.98R
FT INDIANTOWN  PTCLDY    36  20  53 W5        29.96S
CAPITAL CITY   PTCLDY    35  22  58 SW5       29.97S
HARRISBURG     PTCLDY    37  22  54 N3        29.97R
YORK           PTCLDY    28  23  81 CALM      29.97S
$$

PAZ038>040-043-044-047-048-054-055-060>062-067>071-251100-
EASTERN PENNSYLVANIA

CITY           SKY/WX    TMP DP  RH WIND       PRES   REMARKS
SCRANTON       CLEAR     34  22  61 NW9       29.91F
MOUNT POCONO   CLEAR     28  20  71 NW8       29.85S
ALLENTOWN      CLEAR     30  20  66 SW5       29.94S
QUAKERTOWN*    SUNNY     32  21  64 W3        29.95R
READING        PTCLDY    36  21  54 W7        29.96R
LANCASTER      PTCLDY    32  22  66 SW5       29.97R
COATESVILLE    MOSUNNY   34  23  64 NW5       29.96R
POTTSTOWN      CLEAR     32  22  66 NW3       29.96S
BLUE BELL      CLEAR     34  27  75 CALM      29.95S
DOYLESTOWN     CLEAR     33  21  61 W6        29.94S
WILLOW GROVE   NOT AVBL
NORTH PHILA    CLEAR     36  21  54 W5        29.97S
PHILADELPHIA   NOT AVBL
$$



USA.gov is the U.S. government's official web portal to all federal, state and local government web resources and services.